Regional Weather Roundup
Issued by NWS Green Bay, WI

Home | Current Version | Previous Version | Graphics & Text | Print | Product List | Glossary Off
Versions: 1 2 3 4 5 6 7 8 9 10 11 12 13 14 15 16 17 18 19 20 21 22 23 24 25 26 27 28 29 30 31 32 33 34 35 36 37 38 39 40 41 42 43 44 45 46 47 48 49 50

000
ASUS43 KGRB 261511
RWRGRB

NORTH-CENTRAL AND NORTHEAST WISCONSIN REGIONAL WEATHER ROUNDUP
NATIONAL WEATHER SERVICE GREEN BAY WI
900 AM CST SUN FEB 26 2017

WIZ005-009-010>012-018-019-261600-
NORTH CENTRAL WISCONSIN

CITY           SKY/WX    TMP DP  RH WIND       PRES   REMARKS
IRONWOOD       CLOUDY    23  18  81 SW10      29.66S
MANITOWISH WTR FLURRIES  21  19  91 SW9       29.66S
ARBOR VITAE    CLOUDY    23  19  85 SW8         N/A
EAGLE RIVER    FLURRIES  22  16  79 SW14G20   29.67S WCI   9
LAND O LAKES   CLOUDY    22  18  85 SW9       29.67S
RHINELANDER    LGT SNOW  23  18  81 SW10      29.69R
PHILLIPS       CLOUDY    23  18  83 SW9G16    29.68S
ANTIGO         CLOUDY    23  17  79 SW15      29.71F
TOMAHAWK       CLOUDY    24  17  76 S5        29.70S
MERRILL        NOT AVBL
$$

WIZ013-073-261600-
NORTHEAST WISCONSIN

CITY           SKY/WX    TMP DP  RH WIND       PRES   REMARKS
IRON MOUNTAIN  CLOUDY    20  14  77 S9        29.70F WCI   9
MARINETTE        N/A     26  20  77 SW16      29.80F
OCONTO         CLOUDY    27  18  69 SW9       29.81F
$$

WIZ017-030-035>037-045-261600-
CENTRAL WISCONSIN

CITY           SKY/WX    TMP DP  RH WIND       PRES   REMARKS
MEDFORD        CLOUDY    24  16  73 SW9       29.71R
WAUSAU         MOSUNNY   25  17  72 S15G22    29.72F
MOSINEE        PTSUNNY   25  19  80 S14G20    29.75F
MARSHFIELD     SUNNY     24  16  71 SW13      29.72F
WISC RAPIDS    SUNNY     27  19  72 SW15G22   29.78F
STEVENS POINT  CLOUDY    24  17  73 S9        29.76F
WAUPACA        CLOUDY    29  19  67 S9        29.81F
SHAWANO        CLOUDY    29  20  68 S6        29.79F
CLINTONVILLE   CLOUDY    27  19  74 S12       29.79F
WAUTOMA        PTSUNNY   28  20  71 S9        29.81F
$$

WIZ038-039-048-051-261600-
FOX VALLEY

CITY           SKY/WX    TMP DP  RH WIND       PRES   REMARKS
NWS GREEN BAY  CLOUDY    29  20  69 S13G22    29.82F
APPLETON       CLOUDY    27  18  69 S15       29.80F
OSHKOSH        CLOUDY    27  19  72 S16       29.82F
FOND DU LAC    CLOUDY    29  18  63 S14G22    29.84S
$$

WIZ022-050-052-261600-
EAST CENTRAL WISCONSIN

CITY           SKY/WX    TMP DP  RH WIND       PRES   REMARKS
EPHRAIM        CLOUDY    28  23  82 S7        29.78F
WASHINGTON ISL LGT SNOW  27  23  85 S10G20    29.79F
STURGEON BAY   CLOUDY    27  19  72 S15       29.81F
MANITOWOC      CLOUDY    28  18  66 S16G23    29.86F
SHEBOYGAN      CLOUDY    27  19  72 S13       29.86F
$$

LMZ563-521-522-541>543-261600-
LAKESHORE

STATION/POSITION TIME  TEMP    WIND        PRES    VSBY  WAVE
                       AIR SEA DIR/SP/G                  HT/PER
                 (UTC) (F)     (DEG/KT/KT) (MB)    (MI)  (FT/S)
SHEBOYGAN LKSHOR 1500   31     190/ 21/ 23 1012.0F
KEWAUNEE LKSHORE 1448   28     210/ 13/ 18 1010.2F
NORTHPORT PIER   1440   27      CALM  /  2 1009.5F
SISTER BAY LKSHO 1435   29        CALM       N/A
MENOMINEE LKSHOR 1448   26     200/ 15/ 20 1008.4F
$$




USA.gov is the U.S. government's official web portal to all federal, state and local government web resources and services.